CW3873 Weather Reports


time (UTC)temp
F
wind
direction
speed
knots
gust
knots
rain 1hr
in
rain 24hr
in
rain mn
in
humidity
%
barometer
mb
20260906234307 94 0 2.6 7.0 0.00 0.00 0.00 19 1016.1
20260906233806 94 0 0.9 8.7 0.00 0.00 0.00 19 1016.1
20260906233307 94 0 4.3 10.4 0.00 0.00 0.00 19 1016.1
20260906232806 94 0 2.6 7.8 0.00 0.00 0.00 20 1016.0
20260906232307 94 6 4.3 7.8 0.00 0.00 0.00 19 1016.2
20260906231807 94 0 5.2 10.4 0.00 0.00 0.00 19 1016.1
20260906231306 94 0 0.9 5.2 0.00 0.00 0.00 18 1016.2
20260906230807 95 0 0.9 4.3 0.00 0.00 0.00 18 1016.2
20260906230306 95 0 2.6 7.0 0.00 0.00 0.00 18 1016.3
20260906225807 95 0 1.7 4.3 0.00 0.00 0.00 19 1016.2
20260906224807 95 5 2.6 7.8 0.00 0.00 0.00 18 1016.3
20260906224308 95 0 2.6 5.2 0.00 0.00 0.00 18 1016.2
20260906223806 95 0 0.9 7.0 0.00 0.00 0.00 18 1016.2
20260906223307 95 0 3.5 8.7 0.00 0.00 0.00 18 1016.3
20260906222807 96 0 3.5 10.4 0.00 0.00 0.00 18 1016.4
20260906222307 96 0 0.9 5.2 0.00 0.00 0.00 17 1016.3
20260906221806 96 0 2.6 10.4 0.00 0.00 0.00 17 1016.3
20260906221307 96 347 1.7 7.0 0.00 0.00 0.00 17 1016.5
20260906220807 96 334 0.9 5.2 0.00 0.00 0.00 17 1016.5
20260906220307 96 0 0.9 2.6 0.00 0.00 0.00 17 1016.7
20260906215806 96 0 0.9 4.3 0.00 0.00 0.00 17 1016.8
20260906215308 96 0 2.6 5.2 0.00 0.00 0.00 17 1016.9
20260906214808 96 0 2.6 5.2 0.00 0.00 0.00 17 1016.9
20260906214307 96 0 2.6 4.3 0.00 0.00 0.00 17 1017.0
20260906213808 96 0 1.7 5.2 0.00 0.00 0.00 17 1017.1
20260906213307 96 0 1.7 8.7 0.00 0.00 0.00 17 1017.4
20260906212311 97 0 0.9 4.3 0.00 0.00 0.00 16 1017.5
20260906211806 97 0 1.7 7.0 0.00 0.00 0.00 16 1017.7
20260906211309 97 0 0.9 4.3 0.00 0.00 0.00 16 1017.8
20260906210808 97 0 0.0 4.3 0.00 0.00 0.00 15 1017.8
20260906210307 97 7 2.6 5.2 0.00 0.00 0.00 15 1018.0
20260906205808 97 0 2.6 7.0 0.00 0.00 0.00 15 1017.7
20260906205307 97 3 2.6 7.0 0.00 0.00 0.00 15 1017.9
20260906204807 97 2 0.9 1.7 0.00 0.00 0.00 15 1017.9
20260906204308 97 0 0.0 5.2 0.00 0.00 0.00 15 1018.0
20260906202806 97 0 0.9 1.7 0.00 0.00 0.00 15 1018.3
20260906202307 96 20 0.0 2.6 0.00 0.00 0.00 16 1018.4
20260906201306 96 0 0.0 1.7 0.00 0.00 0.00 16 1018.5
20260906200807 96 0 2.6 4.3 0.00 0.00 0.00 15 1018.6
20260906200308 96 0 0.0 0.9 0.00 0.00 0.00 16 1018.5
20260906195807 96 0 0.0 4.3 0.00 0.00 0.00 16 1018.6
20260906195307 96 0 1.7 5.2 0.00 0.00 0.00 16 1018.7
20260906194808 95 0 0.9 2.6 0.00 0.00 0.00 16 1018.7
20260906194308 96 5 1.7 5.2 0.00 0.00 0.00 16 1018.7
20260906193806 96 0 2.6 8.7 0.00 0.00 0.00 16 1018.7
20260906193307 97 5 2.6 7.0 0.00 0.00 0.00 15 1018.8
20260906192808 97 3 1.7 5.2 0.00 0.00 0.00 15 1018.9
20260906191806 96 12 2.6 8.7 0.00 0.00 0.00 15 1019.0
20260906191308 96 252 1.7 7.0 0.00 0.00 0.00 16 1019.1
20260906190807 96 12 0.0 1.7 0.00 0.00 0.00 17 1019.2
20260906190308 96 0 0.0 2.6 0.00 0.00 0.00 17 1019.4
20260906185307 95 2 3.5 7.0 0.00 0.00 0.00 17 1019.3
20260906184807 95 5 1.7 7.0 0.00 0.00 0.00 17 1019.6
20260906183807 94 1 0.9 4.3 0.00 0.00 0.00 17 1019.7
20260906183306 94 0 0.9 4.3 0.00 0.00 0.00 19 1019.9
20260906182307 93 0 0.9 2.6 0.00 0.00 0.00 19 1020.2
20260906181807 92 0 1.7 4.3 0.00 0.00 0.00 18 1020.1
20260906181306 92 4 1.7 6.1 0.00 0.00 0.00 21 1020.2
20260906180807 92 0 1.7 4.3 0.00 0.00 0.00 21 1020.4
20260906180306 91 3 2.6 5.2 0.00 0.00 0.00 22 1020.4
20260906175807 90 0 0.9 5.2 0.00 0.00 0.00 23 1020.6
20260906175307 89 6 1.7 5.2 0.00 0.00 0.00 25 1020.7
20260906174807 89 0 1.7 4.3 0.00 0.00 0.00 24 1020.6
20260906174307 89 3 0.9 7.0 0.00 0.00 0.00 24 1020.6
20260906173806 88 9 2.6 5.2 0.00 0.00 0.00 25 1020.8
20260906173307 88 29 1.7 7.0 0.00 0.00 0.00 26 1020.8
20260906172806 87 4 0.9 2.6 0.00 0.00 0.00 27 1020.9
20260906172306 87 6 2.6 5.2 0.00 0.00 0.00 27 1020.9
20260906171806 86 0 0.9 4.3 0.00 0.00 0.00 27 1021.0
20260906171308 86 3 2.6 5.2 0.00 0.00 0.00 27 1021.0
20260906170807 85 0 2.6 5.2 0.00 0.00 0.00 28 1021.2
20260906165806 85 20 0.0 5.2 0.00 0.00 0.00 28 1021.3
20260906165310 84 4 2.6 7.8 0.00 0.00 0.00 28 1021.3
20260906164807 84 0 3.5 7.0 0.00 0.00 0.00 28 1021.2
20260906163807 83 358 1.7 5.2 0.00 0.00 0.00 29 1021.4
20260906163305 82 5 1.7 5.2 0.00 0.00 0.00 29 1021.3
20260906161805 81 1 1.7 4.3 0.00 0.00 0.00 30 1021.3
20260906161305 81 359 0.9 7.0 0.00 0.00 0.00 30 1021.2
20260906160805 81 0 2.6 7.0 0.00 0.00 0.00 31 1021.3
20260906160305 80 5 1.7 4.3 0.00 0.00 0.00 31 1021.3
20260906155307 80 13 1.7 5.2 0.00 0.00 0.00 31 1021.3
20260906154805 80 2 3.5 7.0 0.00 0.00 0.00 32 1021.4
20260906154305 79 0 2.6 5.2 0.00 0.00 0.00 32 1021.4
20260906153805 79 9 1.7 4.3 0.00 0.00 0.00 32 1021.4
20260906153305 78 358 0.0 7.0 0.00 0.00 0.00 32 1021.4
20260906152805 78 0 0.9 8.7 0.00 0.00 0.00 32 1021.4
20260906152307 78 0 2.6 7.8 0.00 0.00 0.00 32 1021.4
20260906151805 77 0 1.7 5.2 0.00 0.00 0.00 32 1021.4
20260906151304 77 1 1.7 7.8 0.00 0.00 0.00 33 1021.6
20260906150805 76 0 0.0 0.0 0.00 0.00 0.00 33 1021.7
20260906150305 76 0 0.0 0.0 0.00 0.00 0.00 33 1021.7
20260906145306 76 7 0.0 0.9 0.00 0.00 0.00 32 1021.7
20260906144805 76 0 0.0 0.0 0.00 0.00 0.00 32 1021.6
20260906143805 75 0 0.0 1.7 0.00 0.00 0.00 33 1021.3
20260906143305 75 5 0.0 2.6 0.00 0.00 0.00 34 1021.3
20260906142805 74 3 0.0 0.0 0.00 0.00 0.00 34 1021.3
20260906141805 74 0 0.0 0.9 0.00 0.00 0.00 34 1021.0
20260906141305 73 0 0.0 0.0 0.00 0.00 0.00 36 1021.3
20260906140805 73 0 0.0 0.0 0.00 0.00 0.00 36 1021.3
20260906140305 73 0 0.9 2.6 0.00 0.00 0.00 35 1021.2
20260906135805 73 7 1.7 4.3 0.00 0.00 0.00 35 1021.2
20260906135306 73 1 1.7 2.6 0.00 0.00 0.00 33 1021.1
20260906134805 73 0 1.7 2.6 0.00 0.00 0.00 32 1021.1
20260906134305 73 3 1.7 5.2 0.00 0.00 0.00 31 1020.9
20260906133805 73 0 0.9 7.8 0.00 0.00 0.00 30 1020.7
20260906133305 72 0 2.6 7.0 0.00 0.00 0.00 30 1020.5
20260906132806 72 358 0.9 2.6 0.00 0.00 0.00 31 1020.5
20260906132306 72 0 1.7 7.8 0.00 0.00 0.00 30 1020.3
20260906131805 71 0 3.5 7.0 0.00 0.00 0.00 31 1020.3
20260906131305 71 0 3.5 7.0 0.00 0.00 0.00 31 1020.4
20260906130804 71 0 2.6 5.2 0.00 0.00 0.00 31 1020.5
20260906130305 71 0 2.6 7.0 0.00 0.00 0.00 31 1020.4
20260906125804 70 0 3.5 5.2 0.00 0.00 0.00 32 1020.3
20260906125306 70 0 2.6 5.2 0.00 0.00 0.00 32 1020.4
20260906124805 70 0 2.6 5.2 0.00 0.00 0.00 32 1020.2
20260906124306 70 0 1.7 4.3 0.00 0.00 0.00 33 1020.3
20260906123805 70 0 0.0 2.6 0.00 0.00 0.00 35 1020.4
20260906123305 70 0 0.0 0.0 0.00 0.00 0.00 36 1020.4
20260906122805 70 0 0.0 0.0 0.00 0.00 0.00 37 1020.3
20260906121805 71 350 0.0 0.0 0.00 0.00 0.00 36 1020.3
20260906121304 71 350 0.0 0.0 0.00 0.00 0.00 36 1020.2
20260906120806 71 350 0.0 0.0 0.00 0.00 0.00 36 1020.1
20260906115804 72 348 0.0 0.0 0.00 0.00 0.00 36 1020.1
20260906115306 72 348 0.0 0.0 0.00 0.00 0.00 36 1020.2
20260906114304 73 350 0.0 0.0 0.00 0.00 0.00 36 1020.2
20260906113805 73 350 0.0 0.0 0.00 0.00 0.00 36 1020.2
20260906113305 73 351 0.0 0.0 0.00 0.00 0.00 36 1020.4
20260906112805 73 351 0.0 0.0 0.00 0.00 0.00 36 1020.4
20260906112306 74 351 0.0 0.0 0.00 0.00 0.00 35 1020.3
20260906111805 74 351 0.0 0.0 0.00 0.00 0.00 36 1020.2
20260906111305 74 351 0.0 0.0 0.00 0.00 0.00 36 1020.3
20260906105805 75 351 0.0 0.0 0.00 0.00 0.00 35 1020.4
20260906105306 75 351 0.0 0.0 0.00 0.00 0.00 34 1020.5
20260906104804 75 351 0.0 0.0 0.00 0.00 0.00 33 1020.3
20260906104305 75 351 0.0 0.0 0.00 0.00 0.00 33 1020.4
20260906103804 75 351 0.9 2.6 0.00 0.00 0.00 31 1020.2
20260906103305 75 3 0.0 1.7 0.00 0.00 0.00 32 1020.2
20260906102805 75 2 0.9 2.6 0.00 0.00 0.00 32 1020.1
20260906102306 75 8 0.0 0.0 0.00 0.00 0.00 32 1020.1
20260906101805 75 43 0.0 0.0 0.00 0.00 0.00 32 1020.1
20260906101305 75 42 0.0 0.0 0.00 0.00 0.00 31 1020.2
20260906100305 76 0 0.0 2.6 0.00 0.00 0.00 31 1020.2
20260906095805 76 0 0.9 4.3 0.00 0.00 0.00 31 1019.8
20260906094305 76 0 1.7 5.2 0.00 0.00 0.00 31 1019.7
20260906093805 76 0 0.9 2.6 0.00 0.00 0.00 31 1019.7
20260906093305 76 0 1.7 5.2 0.00 0.00 0.00 31 1019.6
20260906092306 76 0 1.7 7.0 0.00 0.00 0.00 31 1019.7
20260906091305 76 0 1.7 5.2 0.00 0.00 0.00 31 1019.6
20260906090804 76 0 2.6 7.8 0.00 0.00 0.00 30 1019.4
20260906090306 76 0 2.6 5.2 0.00 0.00 0.00 31 1019.5
20260906085805 76 0 1.7 5.2 0.00 0.00 0.00 31 1019.4
20260906085307 76 0 1.7 7.0 0.00 0.00 0.00 31 1019.4
20260906084805 76 0 1.7 7.0 0.00 0.00 0.00 31 1019.4
20260906084304 76 0 1.7 4.3 0.00 0.00 0.00 31 1019.4
20260906083805 76 0 1.7 4.3 0.00 0.00 0.00 31 1019.5
20260906083305 76 0 0.9 2.6 0.00 0.00 0.00 31 1019.5
20260906082805 76 0 0.9 2.6 0.00 0.00 0.00 32 1019.7
20260906082306 76 0 0.9 2.6 0.00 0.00 0.00 32 1019.7
20260906081805 76 0 0.9 2.6 0.00 0.00 0.00 32 1019.7
20260906081305 76 0 0.9 2.6 0.00 0.00 0.00 32 1019.8
20260906080805 75 0 1.7 2.6 0.00 0.00 0.00 32 1019.7
20260906080304 75 0 0.9 2.6 0.00 0.00 0.00 32 1019.8
20260906075805 75 0 0.9 5.2 0.00 0.00 0.00 32 1019.8
20260906075306 75 0 1.7 4.3 0.00 0.00 0.00 32 1019.8
20260906074805 75 0 1.7 4.3 0.00 0.00 0.00 32 1019.9
20260906074305 75 0 0.9 2.6 0.00 0.00 0.00 32 1019.9
20260906073805 75 0 0.9 2.6 0.00 0.00 0.00 32 1019.9
20260906073305 75 0 0.9 4.3 0.00 0.00 0.00 32 1019.9
20260906072805 75 0 2.6 5.2 0.00 0.00 0.00 32 1020.0
20260906072306 76 0 2.6 4.3 0.00 0.00 0.00 32 1020.1
20260906071806 76 0 0.0 2.6 0.00 0.00 0.00 32 1020.1
20260906071305 76 0 0.0 0.0 0.00 0.00 0.00 32 1020.1
20260906070805 77 0 0.0 0.0 0.00 0.00 0.00 31 1020.1
20260906070305 77 0 0.0 0.0 0.00 0.00 0.00 31 1020.1
20260906065804 77 0 0.0 0.0 0.00 0.00 0.00 31 1020.1
20260906065305 77 0 0.0 0.0 0.00 0.00 0.00 31 1020.1
20260906064805 78 0 0.0 0.0 0.00 0.00 0.00 31 1020.1
20260906064305 78 0 0.0 0.0 0.00 0.00 0.00 31 1020.2
20260906063305 78 197 0.0 0.0 0.00 0.00 0.00 31 1020.2
20260906062805 78 197 0.0 0.0 0.00 0.00 0.00 31 1020.2
20260906062306 79 197 0.0 0.0 0.00 0.00 0.00 30 1020.1
20260906061305 79 0 0.0 0.0 0.00 0.00 0.00 30 1020.1
20260906060810 79 0 0.0 0.0 0.00 0.00 0.00 30 1020.1
20260906060305 79 0 0.0 0.0 0.00 0.00 0.00 30 1020.0
20260906055805 79 0 0.9 7.0 0.00 0.00 0.00 29 1019.8
20260906055306 80 358 0.0 4.3 0.00 0.00 0.00 30 1020.0
20260906054805 80 0 0.0 0.0 0.00 0.00 0.00 30 1019.9
20260906054305 80 0 0.0 0.0 0.00 0.00 0.00 29 1019.7
20260906053805 80 0 0.0 0.0 0.00 0.00 0.00 29 1019.7
20260906053305 81 0 0.0 0.0 0.00 0.00 0.00 29 1019.8
20260906052306 81 0 0.0 0.0 0.00 0.00 0.00 28 1019.8
20260906051805 81 0 0.0 0.0 0.00 0.00 0.00 28 1019.7
20260906051304 81 0 0.0 2.6 0.00 0.00 0.00 27 1019.6
20260906050806 81 0 1.7 7.8 0.00 0.00 0.00 27 1019.4
20260906050304 81 0 4.3 10.4 0.00 0.00 0.00 27 1019.4
20260906045804 81 0 5.2 11.3 0.00 0.00 0.00 27 1019.3
20260906044805 81 0 5.2 12.2 0.00 0.00 0.00 28 1019.3
20260906044304 81 0 2.6 10.4 0.00 0.00 0.00 28 1019.3
20260906043804 81 0 3.5 7.8 0.00 0.00 0.00 28 1019.4
20260906043304 81 0 3.5 7.0 0.00 0.00 0.00 28 1019.4
20260906042805 81 0 1.7 7.0 0.00 0.00 0.00 28 1019.5
20260906041804 82 0 1.7 5.2 0.00 0.00 0.00 28 1019.5
20260906041304 82 0 2.6 7.0 0.00 0.00 0.00 28 1019.4
20260906040805 82 0 1.7 7.0 0.00 0.00 0.00 27 1019.6
20260906040305 82 0 2.6 7.8 0.00 0.00 0.00 27 1019.6
20260906035805 82 0 1.7 7.0 0.00 0.00 0.00 27 1019.4
20260906035306 82 0 5.2 11.3 0.00 0.00 0.00 27 1019.3
20260906034804 82 0 2.6 10.4 0.00 0.00 0.00 27 1019.3
20260906034304 82 0 2.6 7.8 0.00 0.00 0.00 27 1019.3
20260906033805 82 0 2.6 7.8 0.00 0.00 0.00 27 1019.3
20260906033306 82 0 1.7 7.0 0.00 0.00 0.00 27 1019.3
20260906032804 83 0 2.6 7.8 0.00 0.00 0.00 27 1019.2
20260906032306 83 0 2.6 10.4 0.00 0.00 0.00 27 1019.1
20260906031805 83 0 2.6 7.8 0.00 0.00 0.00 27 1019.1
20260906031305 83 0 2.6 7.0 0.00 0.00 0.00 27 1019.0
20260906030805 83 0 1.7 7.0 0.00 0.00 0.00 27 1018.8
20260906030305 83 0 4.3 7.8 0.00 0.00 0.00 27 1018.7
20260906025805 83 0 3.5 8.7 0.00 0.00 0.00 27 1018.6
20260906025306 83 358 4.3 10.4 0.00 0.00 0.00 27 1018.6
20260906024805 83 0 4.3 8.7 0.00 0.00 0.00 27 1018.6
20260906024304 84 0 3.5 8.7 0.00 0.00 0.00 27 1018.5
20260906023805 84 358 2.6 7.0 0.00 0.00 0.00 27 1018.4
20260906023304 84 0 2.6 7.8 0.00 0.00 0.00 27 1018.3
20260906022307 85 358 1.7 4.3 0.00 0.00 0.00 29 1018.4
20260906021804 85 0 0.0 1.7 0.00 0.00 0.00 29 1018.3
20260906021304 85 0 0.0 0.0 0.00 0.00 0.00 29 1018.3
20260906020805 85 0 0.0 0.0 0.00 0.00 0.00 29 1018.3
20260906020304 86 0 0.0 0.0 0.00 0.00 0.00 29 1018.2
20260906015804 86 0 0.0 0.0 0.00 0.00 0.00 29 1018.1
20260906015306 87 0 0.0 0.0 0.00 0.00 0.00 29 1018.1
20260906014805 87 0 0.0 0.0 0.00 0.00 0.00 28 1018.1
20260906014305 87 0 0.0 0.0 0.00 0.00 0.00 28 1018.0
20260906013804 87 0 0.0 0.0 0.00 0.00 0.00 27 1018.1
20260906013305 88 0 0.0 0.0 0.00 0.00 0.00 27 1018.0
20260906012805 88 0 0.0 1.7 0.00 0.00 0.00 27 1018.1
20260906012306 88 0 0.0 0.0 0.00 0.00 0.00 26 1018.1
20260906011804 89 0 0.0 0.0 0.00 0.00 0.00 26 1018.1
20260906011305 89 0 0.0 0.0 0.00 0.00 0.00 26 1018.0
20260906010804 89 0 0.0 0.0 0.00 0.00 0.00 26 1018.0
20260906005804 89 0 0.9 4.3 0.00 0.00 0.00 25 1018.1
20260906005306 90 0 1.7 4.3 0.00 0.00 0.00 25 1018.1
20260906004804 90 0 0.9 4.3 0.00 0.00 0.00 25 1018.1
20260906004305 90 355 1.7 5.2 0.00 0.00 0.00 25 1018.1
20260906003805 90 358 1.7 6.1 0.00 0.00 0.00 25 1018.1
20260906003304 91 0 1.7 7.0 0.00 0.00 0.00 24 1018.1
20260906002804 91 308 0.0 1.7 0.00 0.00 0.00 24 1018.1
20260906002306 91 0 0.0 2.6 0.00 0.00 0.00 25 1018.1
20260906001804 91 0 0.9 4.3 0.00 0.00 0.00 24 1018.1
20260906001304 92 0 1.7 7.8 0.00 0.00 0.00 24 1018.1
20260906000805 92 0 1.7 7.0 0.00 0.00 0.00 24 1018.0
20260905235804 92 0 1.7 5.2 0.00 0.00 0.00 24 1018.0
20260905234804 92 0 1.7 8.7 0.00 0.00 0.00 24 1018.1